Hourly Data Report for October 29, 2004

SHERBROOKE A
QUEBEC

45°26'00.000" N
71°41'00.000" W
241.40 m
7028124
71610
YSC

Download Data

Hourly Data (October 2004)
Hourly Data Report for October 29, 2004
TIME
LST
Temp Definition
°C
Dew Point Definition
°C
Rel Hum Definition
%
Precip. Amount Definition
mm

Wind Dir Definition
10's deg

Wind Spd Definition
km/h
Visibility Definition
km
Stn Press Definition
kPa
Hmdx Definition


Wind Chill Definition


Weather Definition


00:00 -5.2 -7.1 86     0 15.0 99.37      
01:00 -4.3 -6.1 87   9 6 15.0 99.32   -7  
02:00 -3.7 -5.6 87   13 4 15.0 99.24   -5  
03:00 -3.9 -5.5 89     0 15.0 99.24      
04:00 -5.7 -7.5 87   12 4 15.0 99.23   -8  
05:00 -6.1 -7.6 89   13 6 15.0 99.16   -9  
06:00 -6.9 -8.5 88   10 4 15.0 99.18   -9  
07:00 -5.3 -6.8 89   9 4 24.1 99.18   -7 Mainly Clear
08:00 -2.1 -4.6 83     0 24.1 99.16     Mainly Clear
09:00 0.4 -3.0 78   11 4 24.1 99.07     Mainly Clear
10:00 3.9 -2.2 64   12 4 24.1 99.06     Mainly Clear
11:00 5.8 -2.5 55     0 24.1 99.02     Mainly Clear
12:00 7.8 -2.2 49   20 6 24.1 98.90     Mainly Clear
13:00 8.1 -2.9 46   31 6 24.1 98.82     Mainly Clear
14:00 9.0 -2.6 44     0 24.1 98.78     Mainly Clear
15:00 8.9 -3.2 42     0 24.1 98.76     Mainly Clear
16:00 8.5 -3.2 44   22 4 24.1 98.74     Mainly Clear
17:00 1.9 -3.8 66   21 4 15.0 98.72      
18:00 -0.1 -4.7 71     0 15.0 98.71      
19:00 -0.8 -3.8 80   9 7 15.0 98.72   -3  
20:00 -0.8 -4.3 77   9 9 15.0 98.70   -4  
21:00 -1.2 -4.8 76   9 7 15.0 98.68   -4  
22:00 -1.9 -5.3 78   10 7 15.0 98.65   -5  
23:00 -2.2 -5.6 77   8 11 15.0 98.58   -6  

Notes on Data Quality.

Legend

  • E = Estimated
  • M = Missing
  • NA = Not Available*
  • [empty] = Indicates an unobserved value
Date modified: